Location: Unspecified
(0.0000°N, 0.0000°E)
Time: 23:52:38
(UTC+00:00)

Vanguard 2 Rocket - Visible Passes

Search period start: 28 May 2022 00:00
Search period end: 07 June 2022 00:00
Orbit: 553 x 3323 km, 32.9° (Epoch: 28 May)

Date Brightness Start Highest point End Pass type
(mag) Time Alt. Az. Time Alt. Az. Time Alt. Az.
28 May 10.0 05:22:43 10° S 05:27:54 14° SSE 05:34:17 10° ESE visible
28 May 8.4 19:17:39 10° NNW 19:23:56 23° NNE 19:26:37 17° NE visible
28 May 9.7 21:32:20 10° WNW 21:32:23 10° WNW 21:32:23 10° WNW visible
29 May 9.1 18:16:25 10° NNW 18:22:52 18° NNE 18:27:32 10° ENE visible
29 May 8.0 20:31:06 10° NW 20:35:54 39° NW 20:35:54 39° NW visible
30 May 7.6 19:29:48 10° NW 19:37:53 41° NNE 19:39:26 35° ENE visible
31 May 9.8 04:37:58 10° SSE 04:40:22 11° SE 04:43:02 10° SE visible
31 May 8.8 18:28:14 10° NNW 18:37:07 30° NNE 18:42:44 10° E visible
31 May 8.3 20:44:25 10° WNW 20:48:46 33° W 20:48:46 33° W visible
01 Jun 6.8 19:42:33 10° NW 19:51:26 78° NE 19:52:19 65° E visible
02 Jun 9.6 04:48:12 10° S 04:53:54 18° SE 05:01:40 10° ESE visible
02 Jun 8.0 18:40:34 10° NW 18:51:01 50° NNE 18:55:53 17° E visible
02 Jun 9.0 20:58:34 10° W 21:01:40 20° W 21:01:40 20° W visible
03 Jun 7.2 19:55:55 10° WNW 20:04:37 56° SW 20:05:14 54° SSW visible
04 Jun 9.3 05:00:02 10° SSW 05:07:01 28° SE 05:17:47 10° E visible
04 Jun 7.5 18:53:23 10° NW 19:04:31 85° NE 19:08:48 23° ESE visible
04 Jun 9.6 21:14:08 10° WSW 21:14:35 11° WSW 21:14:35 11° WSW visible
05 Jun 9.4 04:02:32 10° S 04:06:34 15° SE 04:11:41 10° ESE visible
05 Jun 8.2 20:10:04 10° W 20:17:31 30° SW 20:18:10 30° SSW visible
06 Jun 9.0 05:12:24 10° SSW 05:19:52 43° SE 05:32:37 10° ENE visible
06 Jun 8.0 19:06:48 10° WNW 19:17:37 57° SW 19:21:45 24° SSE visible
